[[{"header":{"parameterUnit":"m.s-1","parameterCategory":1,"la1":30.2991,"la2":30.254,"lo1":-89.0895,"lo2":-89.0444,"dy":0.0017,"dx":0.0017,"nx":28,"ny":28,"refTime":"2023-09-06T21:00:00:Z","depth":0,"parameterNumber":2,"parameterNumberName":"U-component_of_WINDS"},"data":[0,0,0,0,0,0,0,0,0,0,0,0,0,0,0,0,0,0,0,0,0,0,0,0,0,0,0,0,0,0,0,0,0,0,0,0,0,0,0,0,0,0,0,0,0,0,0,0,0,0,0,0,0,0,0,0,0,0,0.7588,0.7589,0,0.7687,0.7688,0.7689,0.7714,0.7713,0.7712,0.7712,0.7818,0.7822,0.7825,0,0,0,0,0,0,0,0,0,0,0,0,0,0.7424,0.7427,0.7588,0.7589,0.759,0.7687,0.7688,0.7689,0.7714,0.7713,0.7712,0.7712,0.7817,0.7821,0.7825,0,0,0,0,0,0,0,0,0,0,0,0,0,0.7506,0.7427,0.7587,0.7614,0.7617,0.7686,0.7688,0.769,0.7714,0.7713,0.7712,0.7711,0.7816,0.7821,0.7826,0.7877,0,0,0.7842,0.7844,0,0,0,0,0,0,0,0,0.7501,0.7512,0.7609,0.7612,0.7616,0.7687,0.7669,0.7753,0.7714,0.7677,0.7712,0.7711,0.7776,0.7784,0.7805,0.7882,0.7887,0.7842,0.7845,0.7848,0.7849,0,0,0,0,0,0,0,0.7496,0.7508,0.7627,0.761,0.7615,0.7622,0.7633,0.7685,0.7731,0.7681,0.7683,0.7694,0.7778,0.78,0.7808,0.7889,0.7842,0.7847,0.785,0.7852,0.8014,0.8015,0,0,0,0,0,0,0.7485,0.7503,0.7624,0.763,0.7555,0.7626,0.7638,0.7665,0.7731,0.7739,0.7694,0.7695,0.7792,0.7802,0.7812,0.7876,0.7848,0.7852,0.7855,0.8012,0.8014,0.8015,0,0,0,0,0,0,0.7481,0.7495,0.762,0.7567,0.7584,0.763,0.766,0.7668,0.769,0.7741,0.775,0.7709,0.7791,0.7804,0.7861,0.788,0.7855,0.7859,0.8011,0.8013,0.8014,0.8006,0,0,0,0,0,0,0.7476,0.7494,0.7513,0.7567,0.7586,0.7666,0.7662,0.767,0.7698,0.7699,0.7757,0.7765,0.7792,0.7853,0.7866,0.7887,0.7864,0.8009,0.8012,0.8014,0.8005,0.8007,0.8009,0,0,0,0,0,0.747,0.7508,0.7514,0.7528,0.7611,0.7667,0.7678,0.7706,0.77,0.772,0.7753,0.7763,0.7876,0.7858,0.7873,0.7896,0.8008,0.8011,0.8014,0.8004,0.8007,0.8009,0,0,0,0,0,0,0.7457,0.7515,0.7523,0.7579,0.7617,0.7671,0.7697,0.7708,0.7751,0.7751,0.7785,0.7798,0.7852,0.788,0.7859,0.795,0.7942,0.7948,0.793,0.7933,0.7935,0.7928,0.7868,0,0,0,0,0,0.7459,0.7499,0.7549,0.7593,0.7612,0.7651,0.7677,0.7695,0.7737,0.7754,0.7791,0.7833,0.7878,0.7907,0.7951,0.8009,0.8022,0.8032,0.8034,0.8036,0.8041,0.8074,0.8079,0.8024,0.8024,0.8024,0,0,0.7467,0.7504,0.7527,0.7591,0.7623,0.7665,0.7665,0.7709,0.774,0.7762,0.7816,0.7845,0.7894,0.7951,0.7978,0.7976,0.8059,0.8039,0.804,0.8045,0.8077,0.8082,0.8087,0.8026,0.8025,0.8025,0,0,0.7502,0.7533,0.7574,0.7605,0.7653,0.7679,0.7688,0.774,0.776,0.7815,0.7832,0.787,0.7946,0.7981,0.8008,0.8055,0.8067,0.8068,0.8081,0.8113,0.8117,0.8121,0.8139,0.8144,0.8073,0.8073,0.8073,0,0.7506,0.7567,0.7594,0.7636,0.7664,0.7683,0.7725,0.7755,0.7816,0.7835,0.7831,0.7927,0.7962,0.8027,0.8038,0.806,0.8073,0.8062,0.8114,0.8118,0.8123,0.814,0.8146,0.8073,0.8073,0.8073,0.8073,0,0.7569,0.7611,0.7638,0.7694,0.7726,0.7768,0.7802,0.783,0.7845,0.7872,0.7928,0.797,0.8023,0.8039,0.8055,0.8107,0.8105,0.8107,0.81,0.8127,0.8144,0.815,0.8073,0.8073,0.8073,0.8073,0,0,0.7599,0.7668,0.7678,0.7703,0.7757,0.7791,0.7834,0.7884,0.7908,0.7949,0.7987,0.805,0.8053,0.8084,0.8104,0.8131,0.8166,0.8131,0.8132,0.8136,0.8227,0.8225,0.8232,0.8174,0.8175,0.8176,0.8223,0,0.7641,0.7717,0.7742,0.7806,0.7846,0.7864,0.7902,0.7939,0.7965,0.8003,0.8033,0.8077,0.8076,0.8095,0.8123,0.8156,0.8185,0.8153,0.8211,0.8213,0.8199,0.8241,0.824,0.8282,0.823,0.8231,0.8232,0,0.7701,0.774,0.7808,0.7856,0.7873,0.7907,0.7954,0.799,0.8034,0.8051,0.8084,0.8102,0.8149,0.8139,0.8205,0.8182,0.8207,0.8227,0.8229,0.8237,0.8224,0.8251,0.8296,0.8303,0.8242,0.8241,0.824,0,0.7717,0.7787,0.7836,0.7858,0.7915,0.7938,0.7963,0.8006,0.8034,0.8076,0.8095,0.8142,0.8169,0.8206,0.8236,0.8225,0.83,0.8292,0.8316,0.8316,0.8332,0.8331,0.8383,0.8347,0.8347,0.8346,0.8346,0,0.7761,0.7802,0.7844,0.7875,0.7921,0.7949,0.7995,0.8021,0.8059,0.8096,0.8115,0.8149,0.8187,0.8227,0.8251,0.8302,0.8314,0.833,0.8336,0.8329,0.8327,0.8347,0.8345,0.8348,0.8348,0.8348,0.8347,0,0.7788,0.7817,0.7872,0.7921,0.7934,0.7966,0.8009,0.804,0.8066,0.8112,0.8125,0.8166,0.8214,0.8248,0.831,0.8326,0.8382,0.8387,0.8367,0.837,0.8393,0.8391,0.8461,0.8472,0.8427,0.8427,0.8427,0,0.7815,0.7846,0.7898,0.7923,0.7947,0.7988,0.8016,0.8046,0.8075,0.8126,0.8151,0.82,0.824,0.8316,0.8353,0.8401,0.8408,0.8429,0.8416,0.8407,0.841,0.8408,0.8411,0.8432,0.8432,0.8432,0.8433,0,0.786,0.7872,0.7911,0.7956,0.7988,0.8025,0.8062,0.8082,0.8118,0.815,0.8198,0.8229,0.8292,0.834,0.8391,0.8419,0.8433,0.8436,0.8445,0.8438,0.8425,0.8433,0.8373,0.8435,0.8435,0.8435,0.8435,0.8434,0.7888,0.7916,0.7957,0.8,0.803,0.8064,0.8095,0.8124,0.8164,0.8216,0.8231,0.8281,0.8325,0.8394,0.8423,0.8463,0.8462,0.8474,0.8478,0.848,0.848,0.8417,0.8473,0.8473,0.8473,0.8473,0.8473,0,0.7934,0.7961,0.8,0.805,0.8084,0.8091,0.8132,0.8161,0.8204,0.8242,0.8281,0.8336,0.8384,0.8423,0.8472,0.8497,0.8505,0.8509,0.8508,0.8515,0.8478,0.8466,0.8503,0.8502,0.8502,0.8502,0.8502,0.8502,0.7963,0.8011,0.8029,0.8093,0.812,0.8168,0.8191,0.8223,0.8253,0.8313,0.8352,0.8376,0.8416,0.8467,0.8511,0.8522,0.854,0.8543,0.8555,0.8521,0.8517,0.8514,0.8503,0.8546,0.8546,0.8588,0.8589,0.8589]},{"header":{"parameterUnit":"m.s-1","parameterCategory":1,"la1":30.2991,"la2":30.254,"lo1":-89.0895,"lo2":-89.0444,"dy":0.0017,"dx":0.0017,"nx":28,"ny":28,"refTime":"2023-09-06T21:00:00:Z","depth":0,"parameterNumber":3,"parameterNumberName":"V-component_of_WINDS"},"data":[0,0,0,0,0,0,0,0,0,0,0,0,0,0,0,0,0,0,0,0,0,0,0,0,0,0,0,0,0,0,0,0,0,0,0,0,0,0,0,0,0,0,0,0,0,0,0,0,0,0,0,0,0,0,0,0,0,0,-0.8835,-0.8835,0,-0.8875,-0.8875,-0.8876,-0.8894,-0.8894,-0.8893,-0.8893,-0.8935,-0.8936,-0.8937,0,0,0,0,0,0,0,0,0,0,0,0,0,-0.8775,-0.8776,-0.8834,-0.8835,-0.8835,-0.8875,-0.8875,-0.8876,-0.8894,-0.8894,-0.8893,-0.8893,-0.8934,-0.8936,-0.8937,0,0,0,0,0,0,0,0,0,0,0,0,0,-0.8806,-0.8776,-0.8834,-0.8849,-0.8851,-0.8875,-0.8875,-0.8876,-0.8894,-0.8894,-0.8893,-0.8893,-0.8934,-0.8936,-0.8937,-0.895,0,0,-0.8943,-0.8943,0,0,0,0,0,0,0,0,-0.8805,-0.8809,-0.8846,-0.8848,-0.885,-0.8879,-0.887,-0.8901,-0.8894,-0.8877,-0.8893,-0.8893,-0.8916,-0.892,-0.8927,-0.8952,-0.8953,-0.8943,-0.8944,-0.8945,-0.8945,0,0,0,0,0,0,0,-0.8802,-0.8807,-0.885,-0.8847,-0.8849,-0.8854,-0.8859,-0.8876,-0.8897,-0.8879,-0.888,-0.8885,-0.8917,-0.8926,-0.8928,-0.8954,-0.8943,-0.8944,-0.8945,-0.8946,-0.8994,-0.8994,0,0,0,0,0,0,-0.8798,-0.8805,-0.8849,-0.8852,-0.8827,-0.8855,-0.886,-0.887,-0.8897,-0.8901,-0.8885,-0.8885,-0.8923,-0.8926,-0.893,-0.8948,-0.8945,-0.8946,-0.8947,-0.8993,-0.8994,-0.8994,0,0,0,0,0,0,-0.8796,-0.8801,-0.8848,-0.8829,-0.8835,-0.8857,-0.8867,-0.8871,-0.8879,-0.8901,-0.8905,-0.8889,-0.8923,-0.8928,-0.8945,-0.8949,-0.8947,-0.8949,-0.8993,-0.8993,-0.8994,-0.8982,0,0,0,0,0,0,-0.8794,-0.8801,-0.8805,-0.8829,-0.8836,-0.8861,-0.8867,-0.8872,-0.8882,-0.8883,-0.8906,-0.891,-0.8923,-0.8943,-0.8947,-0.8952,-0.895,-0.8993,-0.8993,-0.8994,-0.8982,-0.8982,-0.8982,0,0,0,0,0,-0.8792,-0.88,-0.8805,-0.881,-0.8842,-0.8862,-0.8866,-0.888,-0.8882,-0.8887,-0.8902,-0.8909,-0.8948,-0.8944,-0.8949,-0.8955,-0.8993,-0.8993,-0.8994,-0.8982,-0.8982,-0.8982,0,0,0,0,0,0,-0.8775,-0.8803,-0.8809,-0.8824,-0.8841,-0.8865,-0.8871,-0.8879,-0.8895,-0.8896,-0.8914,-0.8919,-0.8935,-0.8947,-0.8942,-0.8969,-0.8971,-0.8973,-0.8961,-0.8961,-0.8961,-0.8957,-0.8951,0,0,0,0,0,-0.8773,-0.8786,-0.881,-0.8821,-0.8829,-0.8849,-0.8858,-0.8868,-0.8886,-0.8893,-0.8909,-0.8926,-0.8942,-0.8952,-0.8968,-0.8984,-0.8991,-0.8991,-0.8991,-0.899,-0.8991,-0.9003,-0.9004,-0.8995,-0.8995,-0.8995,0,0,-0.8769,-0.8786,-0.8793,-0.8818,-0.8832,-0.8847,-0.8854,-0.8869,-0.888,-0.8895,-0.8913,-0.8926,-0.8946,-0.8963,-0.8972,-0.8973,-0.8995,-0.8991,-0.8991,-0.8992,-0.9003,-0.9004,-0.9005,-0.8996,-0.8996,-0.8996,0,0,-0.8768,-0.8782,-0.8794,-0.8808,-0.8829,-0.8843,-0.8846,-0.8869,-0.8878,-0.8897,-0.8909,-0.8923,-0.895,-0.8965,-0.8976,-0.8985,-0.8993,-0.899,-0.8988,-0.8999,-0.9,-0.9001,-0.9005,-0.9006,-0.8991,-0.8991,-0.8991,0,-0.876,-0.8782,-0.8799,-0.8813,-0.8825,-0.884,-0.8853,-0.8866,-0.8891,-0.8899,-0.8901,-0.8937,-0.8952,-0.8974,-0.8976,-0.8984,-0.8989,-0.8986,-0.8998,-0.8999,-0.9,-0.9004,-0.9006,-0.899,-0.899,-0.899,-0.899,0,-0.8772,-0.8787,-0.8794,-0.8819,-0.8832,-0.8845,-0.8865,-0.8875,-0.8886,-0.8899,-0.8919,-0.8938,-0.8959,-0.8965,-0.8974,-0.899,-0.899,-0.8995,-0.8997,-0.9,-0.9004,-0.9006,-0.8989,-0.899,-0.899,-0.899,0,0,-0.8759,-0.8796,-0.8798,-0.881,-0.8836,-0.8849,-0.8864,-0.8885,-0.8895,-0.8913,-0.8926,-0.8951,-0.8956,-0.8969,-0.898,-0.899,-0.8998,-0.8994,-0.8995,-0.8994,-0.9017,-0.9013,-0.9015,-0.9004,-0.9004,-0.9004,-0.9016,0,-0.8763,-0.879,-0.8807,-0.8828,-0.8843,-0.886,-0.8873,-0.8891,-0.8905,-0.8921,-0.8937,-0.8954,-0.8959,-0.8967,-0.8978,-0.8994,-0.9002,-0.8994,-0.9017,-0.9018,-0.9012,-0.9017,-0.9012,-0.9022,-0.9017,-0.9018,-0.9018,0,-0.877,-0.8789,-0.8811,-0.8838,-0.8845,-0.8857,-0.8879,-0.8893,-0.8915,-0.8925,-0.894,-0.8953,-0.8971,-0.8972,-0.8998,-0.8992,-0.9003,-0.9014,-0.9014,-0.9017,-0.9018,-0.902,-0.9025,-0.9027,-0.902,-0.902,-0.902,0,-0.876,-0.8791,-0.8809,-0.8819,-0.885,-0.8858,-0.8872,-0.8893,-0.8906,-0.8926,-0.8934,-0.8956,-0.8967,-0.8984,-0.9003,-0.9002,-0.9028,-0.903,-0.9037,-0.9036,-0.9041,-0.904,-0.9048,-0.9048,-0.9048,-0.9048,-0.9048,0,-0.8762,-0.8775,-0.8805,-0.8816,-0.8832,-0.8852,-0.8868,-0.8883,-0.8903,-0.8918,-0.8933,-0.8947,-0.8971,-0.8988,-0.9003,-0.9023,-0.9028,-0.9038,-0.9041,-0.9036,-0.9035,-0.9043,-0.9043,-0.9048,-0.9048,-0.9048,-0.9048,0,-0.8753,-0.8773,-0.8794,-0.8822,-0.883,-0.8841,-0.8866,-0.8878,-0.8894,-0.8913,-0.8919,-0.8944,-0.8965,-0.8986,-0.9014,-0.9024,-0.9045,-0.905,-0.9038,-0.904,-0.9045,-0.9045,-0.9059,-0.9063,-0.9059,-0.9059,-0.9059,0,-0.8752,-0.8763,-0.8794,-0.8806,-0.8819,-0.8837,-0.885,-0.8872,-0.8885,-0.8912,-0.8921,-0.8944,-0.8964,-0.8998,-0.9019,-0.9042,-0.9047,-0.9051,-0.905,-0.9046,-0.9048,-0.9047,-0.9049,-0.905,-0.905,-0.905,-0.905,0,-0.8751,-0.8761,-0.8779,-0.8802,-0.8818,-0.8837,-0.8856,-0.8865,-0.889,-0.8905,-0.8927,-0.8943,-0.8973,-0.8996,-0.9022,-0.9036,-0.9048,-0.905,-0.9053,-0.9048,-0.9041,-0.9045,-0.9037,-0.9049,-0.9049,-0.9049,-0.9049,-0.9049,-0.8746,-0.8758,-0.8781,-0.8802,-0.882,-0.8838,-0.8852,-0.887,-0.8889,-0.8916,-0.8927,-0.8951,-0.8975,-0.901,-0.9026,-0.9045,-0.9047,-0.9051,-0.9052,-0.9053,-0.9052,-0.9038,-0.905,-0.905,-0.905,-0.905,-0.905,0,-0.8746,-0.8763,-0.8782,-0.8809,-0.8826,-0.8836,-0.8859,-0.8873,-0.8893,-0.8915,-0.8934,-0.8961,-0.8985,-0.9009,-0.9033,-0.9044,-0.9051,-0.905,-0.905,-0.9053,-0.9048,-0.9043,-0.9045,-0.9045,-0.9045,-0.9045,-0.9045,-0.9045,-0.8747,-0.8768,-0.8781,-0.8811,-0.8828,-0.8851,-0.8863,-0.8881,-0.8899,-0.8929,-0.8948,-0.8964,-0.8987,-0.9014,-0.9037,-0.9043,-0.9052,-0.9051,-0.9059,-0.9053,-0.9053,-0.9054,-0.9049,-0.9052,-0.9052,-0.9062,-0.9062,-0.9062]}]]